This is the latest recevied weather packets stored in our database for station/object WY1B. If no packets are shown the sender has not sent any weather packets the latest 10 day(s).
| Time | Temp. | Humidity | Pressure | Rain* | Wind** | Luminosity | Snow |
|---|---|---|---|---|---|---|---|
| 1787761946 | 37.78° C | 24% | 1004.6 hPa | 0 mm | - | 84 W/m² | - |
| 1787761641 | 37.78° C | 24% | 1004.6 hPa | 0 mm | - | 90 W/m² | - |
| 1787761336 | 37.22° C | 23% | 1004.7 hPa | 0 mm | - | 96 W/m² | - |
| 1787761035 | 36.67° C | 24% | 1004.5 hPa | 0 mm | - | 98 W/m² | - |
| 1787760734 | 36.11° C | 25% | 1004.6 hPa | 0 mm | - | 92 W/m² | - |
| 1787760428 | 36.11° C | 25% | 1004.4 hPa | 0 mm | - | 87 W/m² | - |
| 1787760124 | 36.11° C | 25% | 1004.4 hPa | 0 mm | - | 76 W/m² | - |
| 1787759820 | 36.11° C | 25% | 1004.4 hPa | 0 mm | - | 68 W/m² | - |
| 1787759516 | 35.56° C | 25% | 1004.3 hPa | 0 mm | - | 62 W/m² | - |
| 1787759211 | 35.56° C | 25% | 1004.2 hPa | 0 mm | - | 56 W/m² | - |
| 1787758910 | 35.56° C | 26% | 1004.2 hPa | 0 mm | - | 73 W/m² | - |
| 1787758605 | 35° C | 25% | 1004.2 hPa | 0 mm | - | 77 W/m² | - |
| 1787758304 | 35° C | 26% | 1004.3 hPa | 0 mm | - | 61 W/m² | - |
| 1787757999 | 34.44° C | 26% | 1004.2 hPa | 0 mm | - | 62 W/m² | - |
| 1787757696 | 34.44° C | 26% | 1004.3 hPa | 0 mm | - | 62 W/m² | - |
| 1787757395 | 34.44° C | 26% | 1004.3 hPa | 0 mm | - | 59 W/m² | - |
| 1787757091 | 34.44° C | 27% | 1004.3 hPa | 0 mm | - | 60 W/m² | - |
| 1787756790 | 34.44° C | 27% | 1004.3 hPa | 0 mm | - | 53 W/m² | - |
| 1787756486 | 34.44° C | 27% | 1004.4 hPa | 0 mm | - | 51 W/m² | - |
| 1787756184 | 34.44° C | 26% | 1004.2 hPa | 0 mm | - | 50 W/m² | - |
| 1787755879 | 34.44° C | 27% | 1004.4 hPa | 0 mm | - | 49 W/m² | - |
| 1787755579 | 34.44° C | 27% | 1004.2 hPa | 0 mm | - | 50 W/m² | - |
| 1787755274 | 33.89° C | 27% | 1004.1 hPa | 0 mm | - | 51 W/m² | - |
| 1787754973 | 33.89° C | 27% | 1004.2 hPa | 0 mm | - | 45 W/m² | - |
| 1787754668 | 33.33° C | 27% | 1004 hPa | 0 mm | - | 45 W/m² | - |
* Rain latest hour (hover to see other rain measurements)
** Current wind speed in m/s (hover to see current wind gust speed)